ARKTIKA-M 1

Last updated on Wed Jul 09 2025 00:02:21 GMT+0000 (Coordinated Universal Time)

1 47719U 21016A 25188.56783479 -.00000061 00000+0 00000+0 0 9997 2 47719 63.1494 105.0602 7121258 268.6885 16.4397 2.00621558 31889
UTC large
Height (km)
Speed (km/s)
/
Latitude / Longitude
Inclination (degrees)
Orbital Period (minutes)
Azimuth
Elevation
Range (km)
Doppler Factor

Next 0 passes for location: London (51.5072 / 0.1276)

Sorry there are no passes over London.